Find Starlink 2180

NORAD ID: 47762 Int'l Des: 2021-017 Owner: SPXS Country: US Constellation: starlink decayed
LEOCIRCULAR

Re-entered — Sep 10, 2026

3D地球を読み込み中...

About Starlink 2180

Starlink 2180 (NORAD 47762) is a starlink constellation satellite (v1.0) launched Mar 4, 2021 by SPXS of US. It re-entered the atmosphere on Sep 10, 2026. with a mass of 260.00 kg.

高度履歴

Loading altitude history...

軌道要素

1 47762U 21017AS 26253.75930132 .11156620 12531-4 35475-3 0 9990
2 47762 53.1311 20.3575 0008760 294.1366 65.8767 16.44214198306802
Epoch: Sep 10, 2026 • Age: 256 hours

現在のステータス

Position data unavailable
打ち上げ日 Mar 4, 2021
運用期間 5.5 years
落下予定日 Sep 10, 2026
タイプ internet

技術仕様

分類 Payload
質量 260.00 kg
乾燥質量 248.00 kg
長さ 0.20 m
スパン 9.00 m
形状 ? Box + pan
製造者 SPXS
バスタイプ Starlink
フェーズステータス Unknown Transfer Status
所有者/国 SPXS/US

Most Searched